TimeCST,TemperatureF,Dew PointF,Humidity,Sea Level PressureIn,VisibilityMPH,Wind Direction,Wind SpeedMPH,Gust SpeedMPH,PrecipitationIn,Events,Conditions,WindDirDegrees,DateUTC
12:54 AM,30.9,25.0,79,30.01,10.0,East,6.9,-,N/A,,Clear,100,2012-11-25 06:54:00
1:54 AM,28.9,23.0,78,29.99,10.0,ESE,5.8,-,N/A,,Clear,110,2012-11-25 07:54:00
2:54 AM,28.0,23.0,81,29.97,10.0,ESE,5.8,-,N/A,,Clear,110,2012-11-25 08:54:00
3:54 AM,32.0,27.0,82,29.96,10.0,East,4.6,-,N/A,,Scattered Clouds,90,2012-11-25 09:54:00
4:54 AM,32.0,25.0,75,29.95,10.0,Calm,Calm,-,N/A,,Clear,0,2012-11-25 10:54:00
5:54 AM,30.0,25.0,82,29.95,10.0,SE,3.5,-,N/A,,Clear,140,2012-11-25 11:54:00
6:54 AM,30.9,24.1,76,29.95,10.0,South,4.6,-,N/A,,Clear,170,2012-11-25 12:54:00
7:54 AM,36.0,25.0,64,29.96,10.0,SSW,4.6,-,N/A,,Clear,200,2012-11-25 13:54:00
8:54 AM,43.0,25.0,49,29.97,10.0,WSW,5.8,-,N/A,,Clear,250,2012-11-25 14:54:00
9:54 AM,48.0,25.0,41,29.96,10.0,WNW,6.9,-,N/A,,Clear,290,2012-11-25 15:54:00
10:54 AM,50.0,25.0,38,29.95,10.0,WNW,8.1,-,N/A,,Clear,290,2012-11-25 16:54:00
11:54 AM,52.0,26.1,37,29.92,10.0,West,6.9,-,N/A,,Clear,270,2012-11-25 17:54:00
12:54 PM,53.1,27.0,37,29.92,10.0,WSW,6.9,-,N/A,,Clear,240,2012-11-25 18:54:00
1:54 PM,54.0,27.0,35,29.92,10.0,WNW,3.5,-,N/A,,Clear,290,2012-11-25 19:54:00
2:54 PM,55.0,28.0,35,29.91,10.0,West,3.5,-,N/A,,Clear,270,2012-11-25 20:54:00
3:54 PM,55.0,28.0,35,29.94,10.0,West,6.9,-,N/A,,Clear,280,2012-11-25 21:54:00
4:54 PM,50.0,28.0,43,29.94,10.0,Calm,Calm,-,N/A,,Clear,0,2012-11-25 22:54:00
5:54 PM,43.0,28.9,58,29.98,10.0,NNE,4.6,-,N/A,,Clear,30,2012-11-25 23:54:00
6:54 PM,39.0,28.9,67,30.00,10.0,NNE,6.9,-,N/A,,Clear,30,2012-11-26 00:54:00
7:54 PM,43.0,30.0,60,30.01,10.0,NNE,10.4,-,N/A,,Clear,30,2012-11-26 01:54:00
8:54 PM,42.1,28.9,60,30.02,10.0,NNE,13.8,-,N/A,,Clear,20,2012-11-26 02:54:00
9:54 PM,41.0,28.9,62,30.04,10.0,NNE,11.5,-,N/A,,Clear,30,2012-11-26 03:54:00
10:54 PM,39.9,28.0,63,30.07,10.0,NE,3.5,-,N/A,,Clear,50,2012-11-26 04:54:00
11:54 PM,35.1,27.0,72,30.08,10.0,ENE,6.9,-,N/A,,Clear,70,2012-11-26 05:54:00